STARLINK-4400 (53468 NORAD) Tracking and Keplerian Element Data

This shows tracking and keplerian element data for the satellite.

Feedback or suggestion? Click here.




ElementValue
Catalog53468
NameSTARLINK-4400
Epoch Orbit1521
Epoch Day324.84719017
Epoch Year2022
RAAN83.9006
Inclination97.6522
Eccentricity6.42E-05
Argument of Perigee312.7519
Mean Anonmoly47.3651
Mean Motion15.01257648
Decay Rate4.11E-06
L11 53468U 22099D 22324.84719017 .00000411 00000+0 36622-4 0 9996
L22 53468 97.6522 83.9006 0000642 312.7519 47.3651 15.01257648 15219



Live tracking and technical data element details for STARLINK-4400 (NORAD 53468). STARLINK-4400 can be tracked NOW for your location showing map with azimuth and elevation plus other details from your city location.







IsCatalogInMostPopularTable: catalog: 53468, numindb: 5
Update: records affected: 1



GetName: 53468 STARLINK-4400

Hit Count: updated at: Thu, 08 Dec 2022 20:16:30 GMT